Year,Month,Day,Hour,Minute,Value (Times are PST for barometer in hPa)
2012,12,19,00,00,1008.64
2012,12,19,00,01,1008.64
2012,12,19,00,02,1008.64
2012,12,19,00,03,1008.64
2012,12,19,00,04,1008.64
2012,12,19,00,05,1008.64
2012,12,19,00,06,1008.64
2012,12,19,00,07,1008.64
2012,12,19,00,08,1008.64
2012,12,19,00,09,1008.64
2012,12,19,00,10,1008.64
2012,12,19,00,11,1008.64
2012,12,19,00,12,1008.64
2012,12,19,00,13,1008.64
2012,12,19,00,14,1008.64
2012,12,19,00,15,1008.43
2012,12,19,00,16,1008.43
2012,12,19,00,17,1008.43
2012,12,19,00,18,1008.43
2012,12,19,00,19,1008.43
2012,12,19,00,20,1008.43
2012,12,19,00,21,1008.43
2012,12,19,00,22,1008.43
2012,12,19,00,23,1008.43
2012,12,19,00,24,1008.43
2012,12,19,00,25,1008.43
2012,12,19,00,26,1008.43
2012,12,19,00,27,1008.43
2012,12,19,00,28,1008.43
2012,12,19,00,29,1008.42
2012,12,19,00,30,1008.20
2012,12,19,00,31,1008.20
2012,12,19,00,32,1008.20
2012,12,19,00,33,1008.20
2012,12,19,00,34,1008.20
2012,12,19,00,35,1008.20
2012,12,19,00,36,1008.20
2012,12,19,00,37,1008.20
2012,12,19,00,38,1008.20
2012,12,19,00,39,1008.20
2012,12,19,00,40,1008.20
2012,12,19,00,41,1008.20
2012,12,19,00,42,1008.20
2012,12,19,00,43,1008.20
2012,12,19,00,44,1008.18
2012,12,19,00,45,1007.82
2012,12,19,00,46,1007.82
2012,12,19,00,47,1007.82
2012,12,19,00,48,1007.82
2012,12,19,00,49,1007.82
2012,12,19,00,50,1007.82
2012,12,19,00,51,1007.82
2012,12,19,00,52,1007.82
2012,12,19,00,53,1007.82
2012,12,19,00,54,1007.82
2012,12,19,00,55,1007.82
2012,12,19,00,56,1007.82
2012,12,19,00,57,1007.82
2012,12,19,00,58,1007.82
2012,12,19,00,59,1007.82
2012,12,19,01,00,1007.45
2012,12,19,01,01,1007.45
2012,12,19,01,02,1007.45
2012,12,19,01,03,1007.45
2012,12,19,01,04,1007.45
2012,12,19,01,05,1007.45
2012,12,19,01,06,1007.45
2012,12,19,01,07,1007.45
2012,12,19,01,08,1007.45
2012,12,19,01,09,1007.45
2012,12,19,01,10,1007.45
2012,12,19,01,11,1007.45
2012,12,19,01,12,1007.45
2012,12,19,01,13,1007.45
2012,12,19,01,14,1007.42
2012,12,19,01,15,1006.88
2012,12,19,01,16,1006.88
2012,12,19,01,17,1006.88
2012,12,19,01,18,1006.88
2012,12,19,01,19,1006.88
2012,12,19,01,20,1006.88
2012,12,19,01,21,1006.88
2012,12,19,01,22,1006.88
2012,12,19,01,23,1006.88
2012,12,19,01,24,1006.88
2012,12,19,01,25,1006.88
2012,12,19,01,26,1006.88
2012,12,19,01,27,1006.88
2012,12,19,01,28,1006.88
2012,12,19,01,29,1006.88
2012,12,19,01,30,1006.33
2012,12,19,01,31,1006.33
2012,12,19,01,32,1006.33
2012,12,19,01,33,1006.33
2012,12,19,01,34,1006.33
2012,12,19,01,35,1006.33
2012,12,19,01,36,1006.33
2012,12,19,01,37,1006.33
2012,12,19,01,38,1006.33
2012,12,19,01,39,1006.33
2012,12,19,01,40,1006.33
2012,12,19,01,41,1006.33
2012,12,19,01,42,1006.33
2012,12,19,01,43,1006.33
2012,12,19,01,44,1006.32
2012,12,19,01,45,1006.20
2012,12,19,01,46,1006.20
2012,12,19,01,47,1006.20
2012,12,19,01,48,1006.20
2012,12,19,01,49,1006.20
2012,12,19,01,50,1006.20
2012,12,19,01,51,1006.20
2012,12,19,01,52,1006.20
2012,12,19,01,53,1006.20
2012,12,19,01,54,1006.20
2012,12,19,01,55,1006.20
2012,12,19,01,56,1006.20
2012,12,19,01,57,1006.20
2012,12,19,01,58,1006.20
2012,12,19,01,59,1006.20
2012,12,19,02,00,1005.96
2012,12,19,02,01,1005.96
2012,12,19,02,02,1005.96
2012,12,19,02,03,1005.96
2012,12,19,02,04,1005.96
2012,12,19,02,05,1005.96
2012,12,19,02,06,1005.96
2012,12,19,02,07,1005.96
2012,12,19,02,08,1005.96
2012,12,19,02,09,1005.96
2012,12,19,02,10,1005.96
2012,12,19,02,11,1005.96
2012,12,19,02,12,1005.96
2012,12,19,02,13,1005.96
2012,12,19,02,14,1005.96
2012,12,19,02,15,1005.83
2012,12,19,02,16,1005.83
2012,12,19,02,17,1005.83
2012,12,19,02,18,1005.83
2012,12,19,02,19,1005.83
2012,12,19,02,20,1005.83
2012,12,19,02,21,1005.83
2012,12,19,02,22,1005.83
2012,12,19,02,23,1005.83
2012,12,19,02,24,1005.83
2012,12,19,02,25,1005.83
2012,12,19,02,26,1005.83
2012,12,19,02,27,1005.83
2012,12,19,02,28,1005.83
2012,12,19,02,29,1005.83
2012,12,19,02,30,1005.62
2012,12,19,02,31,1005.62
2012,12,19,02,32,1005.62
2012,12,19,02,33,1005.62
2012,12,19,02,34,1005.62
2012,12,19,02,35,1005.62
2012,12,19,02,36,1005.62
2012,12,19,02,37,1005.62
2012,12,19,02,38,1005.62
2012,12,19,02,39,1005.62
2012,12,19,02,40,1005.62
2012,12,19,02,41,1005.62
2012,12,19,02,42,1005.62
2012,12,19,02,43,1005.62
2012,12,19,02,44,1005.62
2012,12,19,02,45,1005.28
2012,12,19,02,46,1005.28
2012,12,19,02,47,1005.28
2012,12,19,02,48,1005.28
2012,12,19,02,49,1005.28
2012,12,19,02,50,1005.28
2012,12,19,02,51,1005.28
2012,12,19,02,52,1005.28
2012,12,19,02,53,1005.28
2012,12,19,02,54,1005.28
2012,12,19,02,55,1005.28
2012,12,19,02,56,1005.28
2012,12,19,02,57,1005.28
2012,12,19,02,58,1005.28
2012,12,19,02,59,1005.28
2012,12,19,03,00,1004.74
2012,12,19,03,01,1004.74
2012,12,19,03,02,1004.74
2012,12,19,03,03,1004.74
2012,12,19,03,04,1004.74
2012,12,19,03,05,1004.74
2012,12,19,03,06,1004.74
2012,12,19,03,07,1004.74
2012,12,19,03,08,1004.74
2012,12,19,03,09,1004.74
2012,12,19,03,10,1004.74
2012,12,19,03,11,1004.74
2012,12,19,03,12,1004.74
2012,12,19,03,13,1004.74
2012,12,19,03,14,1004.74
2012,12,19,03,15,1004.47
2012,12,19,03,16,1004.47
2012,12,19,03,17,1004.47
2012,12,19,03,18,1004.47
2012,12,19,03,19,1004.47
2012,12,19,03,20,1004.47
2012,12,19,03,21,1004.47
2012,12,19,03,22,1004.47
2012,12,19,03,23,1004.47
2012,12,19,03,24,1004.47
2012,12,19,03,25,1004.47
2012,12,19,03,26,1004.47
2012,12,19,03,27,1004.47
2012,12,19,03,28,1004.47
2012,12,19,03,29,1004.47
2012,12,19,03,30,1003.76
2012,12,19,03,31,1003.76
2012,12,19,03,32,1003.76
2012,12,19,03,33,1003.76
2012,12,19,03,34,1003.76
2012,12,19,03,35,1003.76
2012,12,19,03,36,1003.76
2012,12,19,03,37,1003.76
2012,12,19,03,38,1003.76
2012,12,19,03,39,1003.76
2012,12,19,03,40,1003.76
2012,12,19,03,41,1003.76
2012,12,19,03,42,1003.76
2012,12,19,03,43,1003.76
2012,12,19,03,44,1003.76
2012,12,19,03,45,1003.18
2012,12,19,03,46,1003.18
2012,12,19,03,47,1003.18
2012,12,19,03,48,1003.18
2012,12,19,03,49,1003.18
2012,12,19,03,50,1003.18
2012,12,19,03,51,1003.18
2012,12,19,03,52,1003.18
2012,12,19,03,53,1003.18
2012,12,19,03,54,1003.18
2012,12,19,03,55,1003.18
2012,12,19,03,56,1003.18
2012,12,19,03,57,1003.18
2012,12,19,03,58,1003.18
2012,12,19,03,59,1003.17
2012,12,19,04,00,1003.01
2012,12,19,04,01,1003.01
2012,12,19,04,02,1003.01
2012,12,19,04,03,1003.01
2012,12,19,04,04,1003.01
2012,12,19,04,05,1003.01
2012,12,19,04,06,1003.01
2012,12,19,04,07,1003.01
2012,12,19,04,08,1003.01
2012,12,19,04,09,1003.01
2012,12,19,04,10,1003.01
2012,12,19,04,11,1003.01
2012,12,19,04,12,1003.01
2012,12,19,04,13,1003.01
2012,12,19,04,14,1003.01
2012,12,19,04,15,1002.64
2012,12,19,04,16,1002.64
2012,12,19,04,17,1002.64
2012,12,19,04,18,1002.64
2012,12,19,04,19,1002.64
2012,12,19,04,20,1002.64
2012,12,19,04,21,1002.64
2012,12,19,04,22,1002.64
2012,12,19,04,23,1002.64
2012,12,19,04,24,1002.64
2012,12,19,04,25,1002.64
2012,12,19,04,26,1002.64
2012,12,19,04,27,1002.64
2012,12,19,04,28,1002.64
2012,12,19,04,29,1002.64
2012,12,19,04,30,1002.64
2012,12,19,04,31,1002.64
2012,12,19,04,32,1002.64
2012,12,19,04,33,1002.64
2012,12,19,04,34,1002.64
2012,12,19,04,35,1002.64
2012,12,19,04,36,1002.64
2012,12,19,04,37,1002.64
2012,12,19,04,38,1002.64
2012,12,19,04,39,1002.64
2012,12,19,04,40,1002.64
2012,12,19,04,41,1002.64
2012,12,19,04,42,1002.64
2012,12,19,04,43,1002.64
2012,12,19,04,44,1002.64
2012,12,19,04,45,1002.57
2012,12,19,04,46,1002.57
2012,12,19,04,47,1002.57
2012,12,19,04,48,1002.57
2012,12,19,04,49,1002.57
2012,12,19,04,50,1002.57
2012,12,19,04,51,1002.57
2012,12,19,04,52,1002.57
2012,12,19,04,53,1002.57
2012,12,19,04,54,1002.57
2012,12,19,04,55,1002.57
2012,12,19,04,56,1002.57
2012,12,19,04,57,1002.57
2012,12,19,04,58,1002.57
2012,12,19,04,59,1002.55
2012,12,19,05,00,1002.20
2012,12,19,05,01,1002.20
2012,12,19,05,02,1002.20
2012,12,19,05,03,1002.20
2012,12,19,05,04,1002.20
2012,12,19,05,05,1002.20
2012,12,19,05,06,1002.20
2012,12,19,05,07,1002.20
2012,12,19,05,08,1002.20
2012,12,19,05,09,1002.20
2012,12,19,05,10,1002.20
2012,12,19,05,11,1002.20
2012,12,19,05,12,1002.20
2012,12,19,05,13,1002.20
2012,12,19,05,14,1002.20
2012,12,19,05,15,1002.13
2012,12,19,05,16,1002.13
2012,12,19,05,17,1002.13
2012,12,19,05,18,1002.13
2012,12,19,05,19,1002.13
2012,12,19,05,20,1002.13
2012,12,19,05,21,1002.13
2012,12,19,05,22,1002.13
2012,12,19,05,23,1002.13
2012,12,19,05,24,1002.13
2012,12,19,05,25,1002.13
2012,12,19,05,26,1002.13
2012,12,19,05,27,1002.13
2012,12,19,05,28,1002.13
2012,12,19,05,29,1002.13
2012,12,19,05,30,1001.66
2012,12,19,05,31,1001.66
2012,12,19,05,32,1001.66
2012,12,19,05,33,1001.66
2012,12,19,05,34,1001.66
2012,12,19,05,35,1001.66
2012,12,19,05,36,1001.66
2012,12,19,05,37,1001.66
2012,12,19,05,38,1001.66
2012,12,19,05,39,1001.66
2012,12,19,05,40,1001.66
2012,12,19,05,41,1001.66
2012,12,19,05,42,1001.66
2012,12,19,05,43,1001.66
2012,12,19,05,44,1001.66
2012,12,19,05,45,1001.63
2012,12,19,05,46,1001.63
2012,12,19,05,47,1001.63
2012,12,19,05,48,1001.63
2012,12,19,05,49,1001.63
2012,12,19,05,50,1001.63
2012,12,19,05,51,1001.63
2012,12,19,05,52,1001.63
2012,12,19,05,53,1001.63
2012,12,19,05,54,1001.63
2012,12,19,05,55,1001.63
2012,12,19,05,56,1001.63
2012,12,19,05,57,1001.63
2012,12,19,05,58,1001.63
2012,12,19,05,59,1001.63
2012,12,19,06,00,1001.63
2012,12,19,06,01,1001.63
2012,12,19,06,02,1001.63
2012,12,19,06,03,1001.63
2012,12,19,06,04,1001.63
2012,12,19,06,05,1001.63
2012,12,19,06,06,1001.63
2012,12,19,06,07,1001.63
2012,12,19,06,08,1001.63
2012,12,19,06,09,1001.63
2012,12,19,06,10,1001.63
2012,12,19,06,11,1001.63
2012,12,19,06,12,1001.63
2012,12,19,06,13,1001.63
2012,12,19,06,14,1001.63
2012,12,19,06,15,1001.36
2012,12,19,06,16,1001.36
2012,12,19,06,17,1001.36
2012,12,19,06,18,1001.36
2012,12,19,06,19,1001.36
2012,12,19,06,20,1001.36
2012,12,19,06,21,1001.36
2012,12,19,06,22,1001.36
2012,12,19,06,23,1001.36
2012,12,19,06,24,1001.36
2012,12,19,06,25,1001.36
2012,12,19,06,26,1001.36
2012,12,19,06,27,1001.36
2012,12,19,06,28,1001.36
2012,12,19,06,29,1001.36
2012,12,19,06,30,1001.12
2012,12,19,06,31,1001.12
2012,12,19,06,32,1001.12
2012,12,19,06,33,1001.12
2012,12,19,06,34,1001.12
2012,12,19,06,35,1001.12
2012,12,19,06,36,1001.12
2012,12,19,06,37,1001.12
2012,12,19,06,38,1001.12
2012,12,19,06,39,1001.12
2012,12,19,06,40,1001.12
2012,12,19,06,41,1001.12
2012,12,19,06,42,1001.12
2012,12,19,06,43,1001.12
2012,12,19,06,44,1001.12
2012,12,19,06,45,1000.85
2012,12,19,06,46,1000.85
2012,12,19,06,47,1000.85
2012,12,19,06,48,1000.85
2012,12,19,06,49,1000.85
2012,12,19,06,50,1000.85
2012,12,19,06,51,1000.85
2012,12,19,06,52,1000.85
2012,12,19,06,53,1000.85
2012,12,19,06,54,1000.85
2012,12,19,06,55,1000.85
2012,12,19,06,56,1000.85
2012,12,19,06,57,1000.85
2012,12,19,06,58,1000.85
2012,12,19,06,59,1000.85
2012,12,19,07,00,1000.51
2012,12,19,07,01,1000.51
2012,12,19,07,02,1000.51
2012,12,19,07,03,1000.51
2012,12,19,07,04,1000.51
2012,12,19,07,05,1000.51
2012,12,19,07,06,1000.51
2012,12,19,07,07,1000.51
2012,12,19,07,08,1000.51
2012,12,19,07,09,1000.51
2012,12,19,07,10,1000.51
2012,12,19,07,11,1000.51
2012,12,19,07,12,1000.51
2012,12,19,07,13,1000.51
2012,12,19,07,14,1000.51
2012,12,19,07,15,1000.31
2012,12,19,07,16,1000.31
2012,12,19,07,17,1000.31
2012,12,19,07,18,1000.31
2012,12,19,07,19,1000.31
2012,12,19,07,20,1000.31
2012,12,19,07,21,1000.31
2012,12,19,07,22,1000.31
2012,12,19,07,23,1000.31
2012,12,19,07,24,1000.31
2012,12,19,07,25,1000.31
2012,12,19,07,26,1000.31
2012,12,19,07,27,1000.31
2012,12,19,07,28,1000.31
2012,12,19,07,29,1000.31
2012,12,19,07,30,1000.00
2012,12,19,07,31,1000.00
2012,12,19,07,32,1000.00
2012,12,19,07,33,1000.00
2012,12,19,07,34,1000.00
2012,12,19,07,35,1000.00
2012,12,19,07,36,1000.00
2012,12,19,07,37,1000.00
2012,12,19,07,38,1000.00
2012,12,19,07,39,1000.00
2012,12,19,07,40,1000.00
2012,12,19,07,41,1000.00
2012,12,19,07,42,1000.00
2012,12,19,07,43,1000.00
2012,12,19,07,44,999.98
2012,12,19,07,45,999.59
2012,12,19,07,46,999.59
2012,12,19,07,47,999.59
2012,12,19,07,48,999.59
2012,12,19,07,49,999.59
2012,12,19,07,50,999.59
2012,12,19,07,51,999.59
2012,12,19,07,52,999.59
2012,12,19,07,53,999.59
2012,12,19,07,54,999.59
2012,12,19,07,55,999.59
2012,12,19,07,56,999.59
2012,12,19,07,57,999.59
2012,12,19,07,58,999.59
2012,12,19,07,59,999.59
2012,12,19,08,00,999.09
2012,12,19,08,01,999.09
2012,12,19,08,02,999.09
2012,12,19,08,03,999.09
2012,12,19,08,04,999.09
2012,12,19,08,05,999.09
2012,12,19,08,06,999.09
2012,12,19,08,07,999.09
2012,12,19,08,08,999.09
2012,12,19,08,09,999.09
2012,12,19,08,10,999.09
2012,12,19,08,11,999.09
2012,12,19,08,12,999.09
2012,12,19,08,13,999.09
2012,12,19,08,14,999.09
2012,12,19,08,15,999.09
2012,12,19,08,16,999.09
2012,12,19,08,17,999.09
2012,12,19,08,18,999.09
2012,12,19,08,19,999.09
2012,12,19,08,20,999.09
2012,12,19,08,21,999.09
2012,12,19,08,22,999.09
2012,12,19,08,23,999.09
2012,12,19,08,24,999.09
2012,12,19,08,25,999.09
2012,12,19,08,26,999.09
2012,12,19,08,27,999.09
2012,12,19,08,28,999.09
2012,12,19,08,29,999.09
2012,12,19,08,30,999.32
2012,12,19,08,31,999.32
2012,12,19,08,32,999.32
2012,12,19,08,33,999.32
2012,12,19,08,34,999.32
2012,12,19,08,35,999.32
2012,12,19,08,36,999.32
2012,12,19,08,37,999.32
2012,12,19,08,38,999.32
2012,12,19,08,39,999.32
2012,12,19,08,40,999.32
2012,12,19,08,41,999.32
2012,12,19,08,42,999.32
2012,12,19,08,43,999.32
2012,12,19,08,44,999.32
2012,12,19,08,45,998.99
2012,12,19,08,46,998.99
2012,12,19,08,47,998.99
2012,12,19,08,48,998.99
2012,12,19,08,49,998.99
2012,12,19,08,50,998.99
2012,12,19,08,51,998.99
2012,12,19,08,52,998.99
2012,12,19,08,53,998.99
2012,12,19,08,54,998.99
2012,12,19,08,55,998.99
2012,12,19,08,56,998.99
2012,12,19,08,57,998.99
2012,12,19,08,58,998.99
2012,12,19,08,59,998.99
2012,12,19,09,00,998.99
2012,12,19,09,01,998.99
2012,12,19,09,02,998.99
2012,12,19,09,03,998.99
2012,12,19,09,04,998.99
2012,12,19,09,05,998.99
2012,12,19,09,06,998.99
2012,12,19,09,07,998.99
2012,12,19,09,08,998.99
2012,12,19,09,09,998.99
2012,12,19,09,10,998.99
2012,12,19,09,11,998.99
2012,12,19,09,12,998.99
2012,12,19,09,13,998.99
2012,12,19,09,14,998.95
2012,12,19,09,15,998.24
2012,12,19,09,16,998.24
2012,12,19,09,17,998.24
2012,12,19,09,18,998.24
2012,12,19,09,19,998.24
2012,12,19,09,20,998.24
2012,12,19,09,21,998.24
2012,12,19,09,22,998.24
2012,12,19,09,23,998.24
2012,12,19,09,24,998.24
2012,12,19,09,25,998.24
2012,12,19,09,26,998.24
2012,12,19,09,27,998.24
2012,12,19,09,28,998.24
2012,12,19,09,29,998.24
2012,12,19,09,30,998.58
2012,12,19,09,31,998.58
2012,12,19,09,32,998.58
2012,12,19,09,33,998.58
2012,12,19,09,34,998.58
2012,12,19,09,35,998.58
2012,12,19,09,36,998.58
2012,12,19,09,37,998.58
2012,12,19,09,38,998.58
2012,12,19,09,39,998.58
2012,12,19,09,40,998.58
2012,12,19,09,41,998.58
2012,12,19,09,42,998.58
2012,12,19,09,43,998.58
2012,12,19,09,44,998.58
2012,12,19,09,45,998.48
2012,12,19,09,46,998.48
2012,12,19,09,47,998.48
2012,12,19,09,48,998.48
2012,12,19,09,49,998.48
2012,12,19,09,50,998.48
2012,12,19,09,51,998.48
2012,12,19,09,52,998.48
2012,12,19,09,53,998.48
2012,12,19,09,54,998.48
2012,12,19,09,55,998.48
2012,12,19,09,56,998.48
2012,12,19,09,57,998.48
2012,12,19,09,58,998.48
2012,12,19,09,59,998.48
2012,12,19,10,00,997.94
2012,12,19,10,01,997.94
2012,12,19,10,02,997.94
2012,12,19,10,03,997.94
2012,12,19,10,04,997.94
2012,12,19,10,05,997.94
2012,12,19,10,06,997.94
2012,12,19,10,07,997.94
2012,12,19,10,08,997.94
2012,12,19,10,09,997.94
2012,12,19,10,10,997.94
2012,12,19,10,11,997.94
2012,12,19,10,12,997.94
2012,12,19,10,13,997.94
2012,12,19,10,14,997.94
2012,12,19,10,15,998.41
2012,12,19,10,16,998.41
2012,12,19,10,17,998.41
2012,12,19,10,18,998.41
2012,12,19,10,19,998.41
2012,12,19,10,20,998.41
2012,12,19,10,21,998.41
2012,12,19,10,22,998.41
2012,12,19,10,23,998.41
2012,12,19,10,24,998.41
2012,12,19,10,25,998.41
2012,12,19,10,26,998.41
2012,12,19,10,27,998.41
2012,12,19,10,28,998.41
2012,12,19,10,29,998.41
2012,12,19,10,30,998.68
2012,12,19,10,31,998.68
2012,12,19,10,32,998.68
2012,12,19,10,33,998.68
2012,12,19,10,34,998.68
2012,12,19,10,35,998.68
2012,12,19,10,36,998.68
2012,12,19,10,37,998.68
2012,12,19,10,38,998.68
2012,12,19,10,39,998.68
2012,12,19,10,40,998.68
2012,12,19,10,41,998.68
2012,12,19,10,42,998.68
2012,12,19,10,43,998.68
2012,12,19,10,44,998.68
2012,12,19,10,45,998.92
2012,12,19,10,46,998.92
2012,12,19,10,47,998.92
2012,12,19,10,48,998.92
2012,12,19,10,49,998.92
2012,12,19,10,50,998.92
2012,12,19,10,51,998.92
2012,12,19,10,52,998.92
2012,12,19,10,53,998.92
2012,12,19,10,54,998.92
2012,12,19,10,55,998.92
2012,12,19,10,56,998.92
2012,12,19,10,57,998.92
2012,12,19,10,58,998.92
2012,12,19,10,59,998.92
2012,12,19,11,00,998.48
2012,12,19,11,01,998.48
2012,12,19,11,02,998.48
2012,12,19,11,03,998.48
2012,12,19,11,04,998.48
2012,12,19,11,05,998.48
2012,12,19,11,06,998.48
2012,12,19,11,07,998.48
2012,12,19,11,08,998.48
2012,12,19,11,09,998.48
2012,12,19,11,10,998.48
2012,12,19,11,11,998.48
2012,12,19,11,12,998.48
2012,12,19,11,13,998.48
2012,12,19,11,14,998.48
2012,12,19,11,15,998.04
2012,12,19,11,16,998.04
2012,12,19,11,17,998.04
2012,12,19,11,18,998.04
2012,12,19,11,19,998.04
2012,12,19,11,20,998.04
2012,12,19,11,21,998.04
2012,12,19,11,22,998.04
2012,12,19,11,23,998.04
2012,12,19,11,24,998.04
2012,12,19,11,25,998.04
2012,12,19,11,26,998.04
2012,12,19,11,27,998.04
2012,12,19,11,28,998.04
2012,12,19,11,29,998.04
2012,12,19,11,30,997.66
2012,12,19,11,31,997.66
2012,12,19,11,32,997.66
2012,12,19,11,33,997.66
2012,12,19,11,34,997.66
2012,12,19,11,35,997.66
2012,12,19,11,36,997.66
2012,12,19,11,37,997.66
2012,12,19,11,38,997.66
2012,12,19,11,39,997.66
2012,12,19,11,40,997.66
2012,12,19,11,41,997.66
2012,12,19,11,42,997.66
2012,12,19,11,43,997.66
2012,12,19,11,44,997.66
2012,12,19,11,45,997.50
2012,12,19,11,46,997.50
2012,12,19,11,47,997.50
2012,12,19,11,48,997.50
2012,12,19,11,49,997.50
2012,12,19,11,50,997.50
2012,12,19,11,51,997.50
2012,12,19,11,52,997.50
2012,12,19,11,53,997.50
2012,12,19,11,54,997.50
2012,12,19,11,55,997.50
2012,12,19,11,56,997.50
2012,12,19,11,57,997.50
2012,12,19,11,58,997.50
2012,12,19,11,59,997.50
2012,12,19,12,00,997.87
2012,12,19,12,01,997.87
2012,12,19,12,02,997.87
2012,12,19,12,03,997.87
2012,12,19,12,04,997.87
2012,12,19,12,05,997.87
2012,12,19,12,06,997.87
2012,12,19,12,07,997.87
2012,12,19,12,08,997.87
2012,12,19,12,09,997.87
2012,12,19,12,10,997.87
2012,12,19,12,11,997.87
2012,12,19,12,12,997.87
2012,12,19,12,13,997.87
2012,12,19,12,14,997.87
2012,12,19,12,15,997.39
2012,12,19,12,16,997.39
2012,12,19,12,17,997.39
2012,12,19,12,18,997.39
2012,12,19,12,19,997.39
2012,12,19,12,20,997.39
2012,12,19,12,21,997.39
2012,12,19,12,22,997.39
2012,12,19,12,23,997.39
2012,12,19,12,24,997.39
2012,12,19,12,25,997.39
2012,12,19,12,26,997.39
2012,12,19,12,27,997.39
2012,12,19,12,28,997.39
2012,12,19,12,29,997.39
2012,12,19,12,30,997.43
2012,12,19,12,31,997.43
2012,12,19,12,32,997.43
2012,12,19,12,33,997.43
2012,12,19,12,34,997.43
2012,12,19,12,35,997.43
2012,12,19,12,36,997.43
2012,12,19,12,37,997.43
2012,12,19,12,38,997.43
2012,12,19,12,39,997.43
2012,12,19,12,40,997.43
2012,12,19,12,41,997.43
2012,12,19,12,42,997.43
2012,12,19,12,43,997.43
2012,12,19,12,44,997.43
2012,12,19,12,45,996.68
2012,12,19,12,46,996.68
2012,12,19,12,47,996.68
2012,12,19,12,48,996.68
2012,12,19,12,49,996.68
2012,12,19,12,50,996.68
2012,12,19,12,51,996.68
2012,12,19,12,52,996.68
2012,12,19,12,53,996.68
2012,12,19,12,54,996.68
2012,12,19,12,55,996.68
2012,12,19,12,56,996.68
2012,12,19,12,57,996.68
2012,12,19,12,58,996.68
2012,12,19,12,59,996.68
2012,12,19,13,00,996.72
2012,12,19,13,01,996.72
2012,12,19,13,02,996.72
2012,12,19,13,03,996.72
2012,12,19,13,04,996.72
2012,12,19,13,05,996.72
2012,12,19,13,06,996.72
2012,12,19,13,07,996.72
2012,12,19,13,08,996.72
2012,12,19,13,09,996.72
2012,12,19,13,10,996.72
2012,12,19,13,11,996.72
2012,12,19,13,12,996.72
2012,12,19,13,13,996.72
2012,12,19,13,14,996.72
2012,12,19,13,15,996.65
2012,12,19,13,16,996.65
2012,12,19,13,17,996.65
2012,12,19,13,18,996.65
2012,12,19,13,19,996.65
2012,12,19,13,20,996.65
2012,12,19,13,21,996.65
2012,12,19,13,22,996.65
2012,12,19,13,23,996.65
2012,12,19,13,24,996.65
2012,12,19,13,25,996.65
2012,12,19,13,26,996.65
2012,12,19,13,27,996.65
2012,12,19,13,28,996.65
2012,12,19,13,29,996.65
2012,12,19,13,30,996.65
2012,12,19,13,31,996.65
2012,12,19,13,32,996.65
2012,12,19,13,33,996.65
2012,12,19,13,34,996.65
2012,12,19,13,35,996.65
2012,12,19,13,36,996.65
2012,12,19,13,37,996.65
2012,12,19,13,38,996.65
2012,12,19,13,39,996.65
2012,12,19,13,40,996.65
2012,12,19,13,41,996.65
2012,12,19,13,42,996.65
2012,12,19,13,43,996.65
2012,12,19,13,44,996.65
2012,12,19,13,45,996.61
2012,12,19,13,46,996.61
2012,12,19,13,47,996.61
2012,12,19,13,48,996.61
2012,12,19,13,49,996.61
2012,12,19,13,50,996.61
2012,12,19,13,51,996.61
2012,12,19,13,52,996.61
2012,12,19,13,53,996.61
2012,12,19,13,54,996.61
2012,12,19,13,55,996.61
2012,12,19,13,56,996.61
2012,12,19,13,57,996.61
2012,12,19,13,58,996.61
2012,12,19,13,59,996.61
2012,12,19,14,00,996.78
2012,12,19,14,01,996.78
2012,12,19,14,02,996.78
2012,12,19,14,03,996.78
2012,12,19,14,04,996.78
2012,12,19,14,05,996.78
2012,12,19,14,06,996.78
2012,12,19,14,07,996.78
2012,12,19,14,08,996.78
2012,12,19,14,09,996.78
2012,12,19,14,10,996.78
2012,12,19,14,11,996.78
2012,12,19,14,12,996.78
2012,12,19,14,13,996.78
2012,12,19,14,14,996.78
2012,12,19,14,15,996.89
2012,12,19,14,16,996.89
2012,12,19,14,17,996.89
2012,12,19,14,18,996.89
2012,12,19,14,19,996.89
2012,12,19,14,20,996.89
2012,12,19,14,21,996.89
2012,12,19,14,22,996.89
2012,12,19,14,23,996.89
2012,12,19,14,24,996.89
2012,12,19,14,25,996.89
2012,12,19,14,26,996.89
2012,12,19,14,27,996.89
2012,12,19,14,28,996.89
2012,12,19,14,29,996.89
2012,12,19,14,30,996.72
2012,12,19,14,31,996.72
2012,12,19,14,32,996.72
2012,12,19,14,33,996.72
2012,12,19,14,34,996.72
2012,12,19,14,35,996.72
2012,12,19,14,36,996.72
2012,12,19,14,37,996.72
2012,12,19,14,38,996.72
2012,12,19,14,39,996.72
2012,12,19,14,40,996.72
2012,12,19,14,41,996.72
2012,12,19,14,42,996.72
2012,12,19,14,43,996.72
2012,12,19,14,44,996.72
2012,12,19,14,45,996.65
2012,12,19,14,46,996.65
2012,12,19,14,47,996.65
2012,12,19,14,48,996.65
2012,12,19,14,49,996.65
2012,12,19,14,50,996.65
2012,12,19,14,51,996.65
2012,12,19,14,52,996.65
2012,12,19,14,53,996.65
2012,12,19,14,54,996.65
2012,12,19,14,55,996.65
2012,12,19,14,56,996.65
2012,12,19,14,57,996.65
2012,12,19,14,58,996.65
2012,12,19,14,59,996.65
2012,12,19,15,00,996.89
2012,12,19,15,01,996.89
2012,12,19,15,02,996.89
2012,12,19,15,03,996.89
2012,12,19,15,04,996.89
2012,12,19,15,05,996.89
2012,12,19,15,06,996.89
2012,12,19,15,07,996.89
2012,12,19,15,08,996.89
2012,12,19,15,09,996.89
2012,12,19,15,10,996.89
2012,12,19,15,11,996.89
2012,12,19,15,12,996.89
2012,12,19,15,13,996.89
2012,12,19,15,14,996.89
2012,12,19,15,15,996.45
2012,12,19,15,16,996.45
2012,12,19,15,17,996.45
2012,12,19,15,18,996.45
2012,12,19,15,19,996.45
2012,12,19,15,20,996.45
2012,12,19,15,21,996.45
2012,12,19,15,22,996.45
2012,12,19,15,23,996.45
2012,12,19,15,24,996.45
2012,12,19,15,25,996.45
2012,12,19,15,26,996.45
2012,12,19,15,27,996.45
2012,12,19,15,28,996.45
2012,12,19,15,29,996.45
2012,12,19,15,30,995.84
2012,12,19,15,31,995.84
2012,12,19,15,32,995.84
2012,12,19,15,33,995.84
2012,12,19,15,34,995.84
2012,12,19,15,35,995.84
2012,12,19,15,36,995.84
2012,12,19,15,37,995.84
2012,12,19,15,38,995.84
2012,12,19,15,39,995.84
2012,12,19,15,40,995.84
2012,12,19,15,41,995.84
2012,12,19,15,42,995.84
2012,12,19,15,43,995.84
2012,12,19,15,44,995.84
2012,12,19,15,45,996.07
2012,12,19,15,46,996.07
2012,12,19,15,47,996.07
2012,12,19,15,48,996.07
2012,12,19,15,49,996.07
2012,12,19,15,50,996.07
2012,12,19,15,51,996.07
2012,12,19,15,52,996.07
2012,12,19,15,53,996.07
2012,12,19,15,54,996.07
2012,12,19,15,55,996.07
2012,12,19,15,56,996.07
2012,12,19,15,57,996.07
2012,12,19,15,58,996.07
2012,12,19,15,59,996.07
2012,12,19,16,00,996.34
2012,12,19,16,01,996.34
2012,12,19,16,02,996.34
2012,12,19,16,03,996.34
2012,12,19,16,04,996.34
2012,12,19,16,05,996.34
2012,12,19,16,06,996.34
2012,12,19,16,07,996.34
2012,12,19,16,08,996.34
2012,12,19,16,09,996.34
2012,12,19,16,10,996.34
2012,12,19,16,11,996.34
2012,12,19,16,12,996.34
2012,12,19,16,13,996.34
2012,12,19,16,14,996.34
2012,12,19,16,15,996.28
2012,12,19,16,16,996.28